Location: New York
(40.7127°N, 74.0060°W)
Time: 17:21:44
(UTC-04:00)

VELOX 1 - Visible Passes

Search period start: 24 April 2024 00:00
Search period end: 04 May 2024 00:00
Orbit: 607 x 618 km, 98.3° (Epoch: 24 April)

Date Brightness Start Highest point End Pass type
(mag) Time Alt. Az. Time Alt. Az. Time Alt. Az.
24 Apr ? 21:28:49 10° N 21:32:56 44° WNW 21:37:02 10° SW visible
25 Apr ? 21:44:00 10° N 21:47:49 31° WNW 21:51:35 10° SW visible
26 Apr ? 20:23:00 10° NNE 20:26:55 32° E 20:30:48 10° SSE visible
26 Apr ? 21:59:17 10° NNW 22:02:38 22° WNW 22:05:57 10° WSW visible
27 Apr ? 20:37:42 10° NNE 20:41:54 47° E 20:46:03 10° S visible
27 Apr ? 22:14:46 10° NNW 22:17:23 16° WNW 22:20:00 10° WSW visible
28 Apr ? 20:52:29 10° NNE 20:56:49 71° ESE 21:01:06 10° S visible
28 Apr ? 22:30:45 10° NW 22:32:07 11° WNW 22:33:28 10° W visible
29 Apr ? 21:07:21 10° N 21:11:42 79° WNW 21:15:59 10° SSW visible
30 Apr ? 21:22:17 10° N 21:26:31 54° WNW 21:30:43 10° SSW visible
01 May ? 21:37:18 10° N 21:41:18 37° WNW 21:45:16 10° SW visible
02 May ? 20:16:33 10° NE 20:20:13 27° E 20:23:52 10° SSE visible
02 May ? 21:52:25 10° NNW 21:56:02 26° WNW 21:59:37 10° SW visible
03 May ? 20:31:04 10° NNE 20:35:06 38° E 20:39:07 10° SSE visible
03 May ? 22:07:40 10° NNW 22:10:43 19° WNW 22:13:45 10° WSW visible
